Hourly Data Report for March 02, 2012

BAGOTVILLE A
QUEBEC

48°20'00.000" N
71°00'00.000" W
159.10 m
7060400
71727
YBG

Download Data

Hourly Data (March 2012)
Hourly Data Report for March 2, 2012
TIME
LST
Temp Definition
°C
Dew Point Definition
°C
Rel Hum Definition
%
Precip. Amount Definition
mm

Wind Dir Definition
10's deg

Wind Spd Definition
km/h
Visibility Definition
km
Stn Press Definition
kPa
Hmdx Definition


Wind Chill Definition


Weather Definition


00:00 -10.2 -12.7 82   10 20 24.1 99.96   -18 Cloudy
01:00 -10.4 -13.3 79   11 17 24.1 99.98   -18 Cloudy
02:00 -10.0 -12.9 79   10 19 24.1 99.97   -18 Snow Showers
03:00 -10.0 -12.9 79   10 20 19.3 99.95   -18 Snow Showers
04:00 -10.2 -13.1 79   9 20 24.1 99.96   -18 Snow Showers
05:00 -10.4 -12.9 82   10 24 16.1 99.97   -19 Snow Showers
06:00 -10.4 -13.3 79   10 19 24.1 99.97   -18 Snow Showers
07:00 -10.3 -12.8 82   9 20 32.2 99.97   -18 Mostly Cloudy
08:00 -10.1 -13.0 79   9 24 40.2 99.86   -19 Mostly Cloudy
09:00 -9.4 -12.6 77   9 26 40.2 99.81   -18 Mostly Cloudy
10:00 -8.5 -11.5 79   9 22 40.2 99.76   -16 Mostly Cloudy
11:00 -7.2 -12.3 67   9 26 40.2 99.74   -15 Cloudy
12:00 -6.5 -11.3 69   9 32 32.2 99.70   -15 Snow Showers
13:00 -6.0 -11.1 67   9 32 19.3 99.63   -15 Snow Showers
14:00 -5.5 -9.6 73   9 33 32.2 99.52   -14 Snow Showers
15:00 -5.6 -10.1 71   9 32 19.3 99.51   -14 Snow Showers
16:00 -5.5 -9.6 73   9 28 19.3 99.46   -13 Cloudy
17:00 -5.5 -9.2 75   9 30 6.4 99.42   -14 Snow Showers
18:00 -6.1 -8.5 83   10 28 4.8 99.40   -14 Snow Showers
19:00 -6.0 -8.8 81   9 28 12.9 99.40   -14 Snow Showers
20:00 -6.0 -8.4 83   9 28 12.9 99.36   -14 Snow
21:00 -6.5 -8.7 84   9 30 12.9 99.34   -15 Snow
22:00 -6.5 -9.0 82   9 24 16.1 99.29   -14 Snow
23:00 -6.4 -8.5 85   9 28 24.1 99.18   -15 Cloudy

Notes on Data Quality.

Legend

  • E = Estimated
  • M = Missing
  • NA = Not Available*
  • [empty] = Indicates an unobserved value
Date modified: